Weather Roundup
Issued by NWS Chicago, IL

Home | Current Version | Previous Version | Text Only | Print | Product List | Glossary Off
Versions: 1 2 3 4 5 6 7 8 9 10 11 12 13 14 15 16 17 18 19 20 21 22 23 24 25 26 27 28 29 30 31 32 33 34 35 36 37 38 39 40 41 42 43 44 45 46 47 48 49 50

000
NZUS59 KLOT 242103
HRRLOT

CHICAGO AREA WEATHER ROUNDUP
NATIONAL WEATHER SERVICE CHICAGO/ROMEOVILLE IL
400 PM CDT SUN JUL 24 2016

NOTE: "FAIR" INDICATES FEW OR NO CLOUDS BELOW 12,000 FEET WITH NO
SIGNIFICANT WEATHER AND/OR OBSTRUCTIONS TO VISIBILITY.

* THESE STATIONS ARE NOT UNDER NWS QUALITY CONTROL. THEY ALSO MAY NOT
  REPORT WEATHER SUCH AS PRECIPITATION OR FOG.

ILZ005-006-012>014-019>023-242200-
NORTHEAST ILLINOIS

CITY           SKY/WX    TMP DP  RH WIND       PRES   REMARKS
OHARE          CLOUDY    90  77  65 SW16G24   29.85R HX 103
MIDWAY         PTSUNNY   93  78  61 SW20G30   29.86R HX 108
AURORA         CLOUDY    91  82  75 SW10      29.87S HX 113
LANSING*       CLOUDY    89  77  67 SW15      29.89S HX 102
WAUKEGAN       CLOUDY    89  75  63 SW12      29.83S THUNDER HX  99
DUPAGE AIRPORT CLOUDY    86  73  65 S8        29.87R THUNDER HX  93
WHEELING       TSTM      91  77  63 S14G22    29.86R HX 104
MORRIS*        PTSUNNY   90  81  74 SW9       29.87S HX 109
NORTHERLY ISL    N/A     90  75  61 S17         N/A  HX 100
$$

WIZ051-052-058>065-066-070>072-242200-
SOUTHEAST WISCONSIN

CITY           SKY/WX    TMP DP  RH WIND       PRES   REMARKS
MILWAUKEE      CLOUDY    90  79  70 S16G22    29.81S HX 106
KENOSHA*       CLOUDY    82  68  62 E5        29.85R THUNDER HX  85
RACINE*        CLOUDY    83  74  74 SW14G20   29.85R THUNDER HX  89
BURLINGTON     CLOUDY    91  79  67 W8        29.83R HX 107
$$

INZ001>003-010>013-019-020-242200-
NORTHWEST INDIANA

CITY           SKY/WX    TMP DP  RH WIND       PRES   REMARKS
GARY*          PTSUNNY   91 N/A N/A S15       29.88S
MICHIGAN CITY* NOT AVBL
RENSSELAER*    NOT AVBL
VALPARAISO     PTSUNNY   90  77  65 S14G24    29.90F HX 103
$$

LMZ740>746-242200-
SOUTHERN LAKE MICHIGAN

STATION/POSITION TIME  SKY/WX   TEMP WIND        PRES    VSBY
                                AIR  DIR/SP/G
                 (UTC)          (F)  (DEG/KT/KT) (MB)    (MI)
HARRISON CRIB    2000            87  190/ 23/ 24   N/A
BURNHAM HARBOR   2100            90  200/ 17/ 21   N/A
CALUMET HARBOR   2000            89  180/ 11/ 16 1010.9F
BURNS HARBOR     2000            88  190/ 11/ 21 1011.9F
MICHIGAN CITY    2000            87  170/ 17/ 20   N/A
$$

ABBREVIATIONS USED IN REMARKS
   TC - TEMPERATURE IN CELSIUS
  WCI - WIND CHILL INDEX
   HX - HEAT INDEX
  VSB - VISIBILITY
$$




USA.gov is the U.S. government's official web portal to all federal, state and local government web resources and services.